Regional Weather Roundup
Issued by NWS

Home | Current Version | Previous Version | Graphics & Text | Print | Product List | Glossary On
Versions: 1 2 3 4 5 6 7 8 9 10 11 12 13 14 15 16 17 18 19 20 21 22 23 24 25 26 27
000
ASUS45 KBOU 031707
RWRCO

WEATHER ROUNDUP FOR COLORADO
NATIONAL WEATHER SERVICE DENVER/BOULDER CO
1100 AM MDT TUE MAY 03 2016

NOTE: "FAIR" INDICATES FEW OR NO CLOUDS BELOW 12000 FEET WITH NO
SIGNIFICANT WEATHER AND/OR OBSTRUCTIONS TO VISIBILITY.

COZ001>005-013-030-031-031800-
...NORTHWEST COLORADO...

CITY           SKY/WX    TMP DP  RH WIND       PRES   REMARKS
CRAIG          FAIR      54  28  36 W5        30.30S
HAYDEN         FAIR      52  21  30 W5        30.30S
MEEKER         FAIR      56  26  31 SW7       30.28F
MOUNT WERNER   NOT AVBL
STEAMBOAT SPGS FAIR      51  28  40 CALM      30.30S
WALDEN         FAIR      46  25  42 W8        30.34S
$$

COZ006>008-011-031800-
...WEST CENTRAL VALLEYS...

CITY           SKY/WX    TMP DP  RH WIND       PRES   REMARKS
GRAND JUNCTION FAIR      59  32  36 VRB5      30.23F
MONTROSE       FAIR      56  33  42 CALM      30.27F
EAGLE          SUNNY     54  25  32 CALM      30.31F
RIFLE          FAIR      58  29  33 CALM      30.26F
DELTA          NOT AVBL
NUCLA          NOT AVBL
$$

COZ017>023-064>068-031800-
...SOUTHWEST COLORADO...

CITY           SKY/WX    TMP DP  RH WIND       PRES   REMARKS
DURANGO        FAIR      53  33  46 CALM      30.25R
CORTEZ         FAIR      60  34  37 VRB5      30.22F
PAGOSA SPRINGS FAIR      53  22  30 W3        30.27S
TELLURIDE      FAIR      48  21  34 CALM      30.35
WOLF CREEK PAS FAIR      32  14  47 E5G18     30.44R WCI  27
$$

COZ009-010-012-014-032>034-037-058>063-031800-
...CENTRAL COLORADO...

CITY           SKY/WX    TMP DP  RH WIND       PRES   REMARKS
ASPEN          FAIR      52  20  28 VRB5      30.29S
BUENA VISTA    NOT AVBL
COPPER MTN     NOT AVBL
BERTHOUD PASS  FAIR      23  14  68 N5        30.43R WCI  17
COTTONWOOD PAS FAIR      50  12  22 CALM      30.35R
GUNNISON       FAIR      48  25  40 W8        30.32S
KREMMLING      FAIR      52  19  28 S3        30.32F
LEADVILLE      FAIR      42   9  25 N10G21    30.34R
MONARCH PASS   FAIR      32  14  47 MISG      30.51R
SALIDA         FAIR      53  20  26 NW5       30.36
SUNLIGHT       FAIR      37  23  56 CALM      30.44S
WILKERSON PASS FAIR      34  19  55 CALM      30.41R
$$

COZ069>075-031800-
...SAN LUIS VALLEY/SANGRE DE CRISTO MOUNTAINS...

CITY           SKY/WX    TMP DP  RH WIND       PRES   REMARKS
ALAMOSA        FAIR      52  27  38 VRB5      30.27S
LA VETA PASS   FAIR      41  27  56 NW3       30.35R
SAGUACHE       FAIR      52  25  35 E3        30.28S
$$

COZ035-036-038>040-031800-
...NORTHERN COLORADO FRONT RANGE...

CITY           SKY/WX    TMP DP  RH WIND       PRES   REMARKS
DENVER INTL AP FAIR      59  30  33 N20       30.23R
DMNS CITY PARK   N/A     60  28  29 N15G26    30.25R
AURORA         FAIR      58  32  36 N16       30.25R
FRONT RANGE AP PTSUNNY   57  32  38 N23G32    30.24R
ERIE MUNI ARPT FAIR      61  30  30 NE16      30.23S
BOULDER MUN AP FAIR      59  30  33 NE8       30.24R
CENTENNIAL     FAIR      56  30  37 N18       30.25R
BROOMFIELD     MOSUNNY   59  28  31 N14G23    30.25R
FORT COLLINS   FAIR      61  34  36 NW17G24   30.24R
LONGMONT       FAIR      64  32  30 NE12      30.24S
$$

COZ041-046-047-076>085-087-088-031800-
...PIKES PEAK/PALMER DIVIDE AND SOUTHERN FOOTHILLS...

CITY           SKY/WX    TMP DP  RH WIND       PRES   REMARKS
COLO. SPRINGS  FAIR      56  24  29 NW23G35   30.26R
A. F. ACADEMY  FAIR      54  27  35 N20G29    30.26R
SCHRIEVER AFB  NOT AVBL
ELLICOTT       FAIR     N/A N/A N/A N31G38    30.22R
FALCON         FAIR      53  26  35 N16       30.28R
FORT CARSON    FAIR      59  26  28 N21G35    30.22S
LIMON          FAIR      55  38  52 N25G33    30.20R
MONUMENT HILL  FAIR      48  30  49 N17G23    30.29R
TRINIDAD       FAIR      58  32  37 N13G23    30.24R
$$

COZ042>045-048>051-090-091-031800-
...NORTHEAST COLORADO...

CITY           SKY/WX    TMP DP  RH WIND       PRES   REMARKS
GREELEY ARPT   FAIR      61  34  36 N17G23    30.22R
AKRON          FAIR      57  35  43 N24G30    30.18S
BURLINGTON     FAIR      57  36  45 N17G28    30.15R
WRAY           NOT AVBL
STERLING       FAIR      61  37  41 N13G22    30.16S
HOLYOKE        NOT AVBL
FORT MORGAN    FAIR      63  35  34 N25       30.19S
$$

COZ086-089-092>099-031800-
...SOUTHEAST COLORADO...

CITY           SKY/WX    TMP DP  RH WIND       PRES   REMARKS
PUEBLO         FAIR      65  26  23 N17G31    30.20R
LA JUNTA       FAIR      66  35  31 N25G36    30.17R
LAMAR          FAIR      63  34  33 N23G32    30.12R
SPRINGFIELD      N/A     58  35  42 N22G32    30.14S
$$




USA.gov is the U.S. government's official web portal to all federal, state and local government web resources and services.